"Pseudo-MPEC" for P11l805

Created 2021 Sep 16 11:07:23 UT using Find_Orb

Click here for an explanation of pseudo-MPECs

 
 Astrometry: 
     P11l805  C2021 09 13yCl$H!:^LYtxUsJK(ff?mJr(B:.v-sd1A?%%k[8?3m5,q`5]L.*PF51
     P11l805  C2021 09 132MttIl'BVl=vqvAR5af\PL.7;kcAstrometryIvn)bAW7jIrfZe)F51
     P11l805  C2021 09 13V6%QCn8c+i59Z+^wT4k8QfohV?`ByK%/_`_SSHredacted;8v7Q0F51
     P11l805 |C2021 09 14B6-Q$SCU?8Cv1^rdcRM%74dDAf]qXh'TXh_]A(8au67,tcq];Dc,807
     P11l805 |C2021 09 142'Q-HhXZV_h5NNrIVd0QG8Nec2aO3N0[2,:lbS[Q[c#+sho%Bq=q807
     P11l805 |C2021 09 14\Z]AfOoPm+cSy/,DGh-KM[mv`5mW`)7wFX=ONnw3WP2@Fen`L?g-807
     P11l805 |C2021 09 15fdmU1Joam;t1D%A56rG0?clickuf_m/K1W'w[wlwjaqU+s4MbJyc807
     P11l805 |C2021 09 155=(d*bfi0P;A-vrhsd?cK6?WcS^KX]hmTqW^3D(Ctw?[s7here#l807
     P11l805 |C2021 09 15VC/[3(8w\Pn3k;Br)pbMD9FYf7]2GZforB)mJuj`LG.9lI[bBkl$807
     P11l805  C2021 09 15rkrrJ^daq1Am:5=6YXbfUL6742SZX1R#]%NBi591,;F#Q%5m`VHfF51
     P11l805  C2021 09 15F9U2l5jXAn;Fv7iePjv6_vnjV]]p9_\_ykqEW0M`dlKo\_uRSe.kF51
     P11l805  C2021 09 15$*a;j:,explanation;:gWKCAxE'ck-XMc=;Kg$pi\+wDy^`9%q?F51
     P11l805  C2021 09 15H9=Gt9[8@D0C`5dd+T_9x*86D,o;Kq.B)IWd;RcKO#:9AEGA+`?iF51

Station data:
(807) Cerro Tololo Observatory, La Serena  (S30.169136 W70.805900)  Chile.
(F51) Pan-STARRS 1, Haleakala  (N20.707235 W156.255910)  US/Hawaii.
   Observers N. Primak, A. Schultz, S. Watters, J. Thiel, T. Goggia. Measurer
   PS1 Science Consortium. 1.8-m Ritchey-Chrétien + CCD.

Orbital elements:  P11l805
   Perihelion 2021 Aug 17.204994 +/- 2.92637 TT =  4:55:11 (JD 2459443.704994)
Epoch 2021 Sep 15.0 TT = JDT 2459472.5   Earth MOID: 0.4089   Ma: 0.0832
M   8.47127096 +/- 0.7427809        (J2000 ecliptic)          AutoNEOCP
n   0.29419236 +/- 0.00698034       Peri.  293.87601 +/- 2.6101688
a   2.23897089 +/- 0.0354033        Node    37.16260 +/- 0.6018845
e   0.3740010 +/- 0.00859472        Incl.    6.37720 +/- 0.0835108
P   3.35                   H 22.6   G  0.15   U  9.4  
q 1.40159349 +/- 0.00522684    Q 3.07634830 +/- 0.0688741
From 13 observations 2021 Sept. 13-15; mean residual 0".10
Residuals in arcseconds: 
210913 F51  .02-  .02-    210914 807  .14-  .20-    210915 F51  .11-  .10+    
210913 F51  .07+  .10-    210915 807  .03-  .08-    210915 F51  .17+  .02-    
210913 F51  .05+  .19+    210915 807  .13+  .05+    210915 F51  .01-  .13-    
210914 807  .09+  .01-    210915 807  .04-  .06+    
210914 807  .17-  .05+    210915 F51  .01-  .08+    

Ephemerides (geocentric):
Date (UTC) HH   RA              Dec         delta   r     elong  mag " sig PA
---- -- -- --  -------------   -----------  ------ ------ -----  --- ---- ---
2021 09 16 11  23 42 11.709   -18 23 13.81  .43322 1.4269 164.1 22.3 .928 160
2021 09 16 12  23 42 10.358   -18 22 43.67  .43331 1.4270 164.1 22.3 .973 160
2021 09 16 13  23 42 09.008   -18 22 13.50  .43340 1.4271 164.1 22.3 1.02 160
2021 09 16 14  23 42 07.657   -18 21 43.29  .43349 1.4271 164.1 22.3 1.07 160
2021 09 16 15  23 42 06.308   -18 21 13.05  .43358 1.4272 164.1 22.3 1.11 159
2021 09 16 16  23 42 04.958   -18 20 42.79  .43366 1.4273 164.1 22.3 1.16 159
2021 09 16 17  23 42 03.610   -18 20 12.49  .43375 1.4273 164.1 22.3 1.21 159
2021 09 16 18  23 42 02.261   -18 19 42.16  .43384 1.4274 164.1 22.3 1.26 159
2021 09 16 19  23 42 00.914   -18 19 11.79  .43393 1.4275 164.1 22.3 1.31 159
2021 09 16 20  23 41 59.566   -18 18 41.40  .43402 1.4276 164.1 22.3 1.37 159
2021 09 16 21  23 41 58.220   -18 18 10.97  .43411 1.4276 164.1 22.3 1.42 159
2021 09 16 22  23 41 56.874   -18 17 40.52  .43420 1.4277 164.1 22.3 1.47 159
2021 09 16 23  23 41 55.528   -18 17 10.03  .43429 1.4278 164.1 22.3 1.53 159
2021 09 17 00  23 41 54.183   -18 16 39.51  .43438 1.4278 164.1 22.3 1.59 159
2021 09 17 01  23 41 52.839   -18 16 08.96  .43447 1.4279 164.1 22.3 1.64 159
2021 09 17 02  23 41 51.495   -18 15 38.38  .43456 1.4280 164.1 22.3 1.70 159
2021 09 17 03  23 41 50.152   -18 15 07.77  .43465 1.4280 164.0 22.3 1.76 159
2021 09 17 04  23 41 48.809   -18 14 37.12  .43474 1.4281 164.0 22.3 1.82 159
2021 09 17 05  23 41 47.467   -18 14 06.45  .43483 1.4282 164.0 22.3 1.88 159
2021 09 17 06  23 41 46.126   -18 13 35.74  .43493 1.4283 164.0 22.3 1.94 159
2021 09 17 07  23 41 44.785   -18 13 05.01  .43502 1.4283 164.0 22.3 2.00 159
2021 09 17 08  23 41 43.445   -18 12 34.24  .43511 1.4284 164.0 22.3 2.07 159
2021 09 17 09  23 41 42.105   -18 12 03.44  .43520 1.4285 164.0 22.3 2.13 159
2021 09 17 10  23 41 40.767   -18 11 32.61  .43530 1.4285 164.0 22.3 2.20 159
2021 09 17 11  23 41 39.428   -18 11 01.75  .43539 1.4286 164.0 22.3 2.26 159
2021 09 17 12  23 41 38.091   -18 10 30.86  .43548 1.4287 164.0 22.3 2.33 159
2021 09 17 13  23 41 36.754   -18 09 59.94  .43558 1.4287 164.0 22.3 2.40 159
2021 09 17 14  23 41 35.418   -18 09 28.98  .43567 1.4288 164.0 22.3 2.47 158
2021 09 17 15  23 41 34.083   -18 08 58.00  .43577 1.4289 164.0 22.3 2.54 158
2021 09 17 16  23 41 32.748   -18 08 26.99  .43586 1.4290 164.0 22.3 2.61 158
2021 09 17 17  23 41 31.414   -18 07 55.94  .43595 1.4290 164.0 22.3 2.68 158
2021 09 17 18  23 41 30.081   -18 07 24.87  .43605 1.4291 164.0 22.3 2.75 158
2021 09 17 19  23 41 28.748   -18 06 53.76  .43614 1.4292 163.9 22.3 2.83 158
2021 09 17 20  23 41 27.416   -18 06 22.63  .43624 1.4292 163.9 22.3 2.90 158
2021 09 17 21  23 41 26.085   -18 05 51.46  .43634 1.4293 163.9 22.3 2.98 158
2021 09 17 22  23 41 24.755   -18 05 20.26  .43643 1.4294 163.9 22.3 3.05 158
2021 09 17 23  23 41 23.425   -18 04 49.03  .43653 1.4295 163.9 22.3 3.13 158
2021 09 18 00  23 41 22.097   -18 04 17.78  .43662 1.4295 163.9 22.3 3.21 158
2021 09 18 01  23 41 20.769   -18 03 46.49  .43672 1.4296 163.9 22.3 3.29 158
2021 09 18 02  23 41 19.441   -18 03 15.17  .43682 1.4297 163.9 22.3 3.37 158
2021 09 18 03  23 41 18.115   -18 02 43.82  .43691 1.4298 163.9 22.3 3.45 158
2021 09 18 04  23 41 16.790   -18 02 12.44  .43701 1.4298 163.9 22.3 3.53 158
2021 09 18 05  23 41 15.465   -18 01 41.03  .43711 1.4299 163.9 22.3 3.62 159
2021 09 18 06  23 41 14.141   -18 01 09.59  .43721 1.4300 163.9 22.3 3.70 159
2021 09 18 07  23 41 12.818   -18 00 38.13  .43731 1.4300 163.9 22.3 3.78 159
2021 09 18 08  23 41 11.496   -18 00 06.63  .43740 1.4301 163.8 22.3 3.87 159
2021 09 18 09  23 41 10.174   -17 59 35.10  .43750 1.4302 163.8 22.3 3.96 159
2021 09 18 10  23 41 08.854   -17 59 03.54  .43760 1.4303 163.8 22.3 4.04 159